Regional Weather Roundup
Issued by NWS Mobile, AL

Home | Current Version | Previous Version | Text Only | Print | Product List | Glossary On
Versions: 1 2 3 4 5 6 7 8 9 10 11 12 13 14 15 16 17 18 19 20 21 22 23 24 25 26 27 28 29 30 31 32 33 34 35 36 37 38 39 40 41 42 43 44 45 46 47 48 49 50
000
ASUS44 KMOB 300110
RWRMOB
REGIONAL WEATHER ROUNDUP
NATIONAL WEATHER SERVICE MOBILE AL
800 PM CDT TUE JUL 29 2014

NOTE: "FAIR" INDICATES FEW OR NO CLOUDS BELOW 12,000 FEET WITH NO
      SIGNIFICANT WEATHER AND/OR OBSTRUCTIONS TO VISIBILITY.

  * THESE STATIONS ARE PART OF THE UNIVERSITY OF SOUTH ALABAMA
    MESONET AND ARE NOT UNDER NWS OR FAA QUALITY CONTROL.

ALZ061>064-300200-
COASTAL ALABAMA

CITY           SKY/WX    TMP DP  RH WIND       PRES   REMARKS
MOBILE REG APT PTCLDY    80  66  62 N5        30.00R
BROOKLEY FIELD PTCLDY    79  67  66 NW3       29.99S
USA CAMPUS*      N/A     77  66  69 CALM      29.98R
DOG RIVER*       N/A     82  66  57 NW3       29.98S


CITY           SKY/WX    TMP DP  RH WIND       PRES   REMARKS
MOUNT VERNON*    N/A     73  68  83 CALM      29.99R
SARALAND*      NOT AVBL
BAY MINETTE*   NOT AVBL
LOXLEY*          N/A     77  68  73 CALM      29.98S
ROBERTSDALE*     N/A     75  68  78 CALM      29.98R
FAIRHOPE*        N/A     79  68  69 VRB3      29.97R
ELBERTA*         N/A     82  70  65 N2        29.97R
FOLEY*         NOT AVBL
GRAND BAY*       N/A     77  70  78 CALM      29.97R
DAUPHIN ISLND* NOT AVBL
BON SCOUR NWR* NOT AVBL
GULF SHORES      N/A     80  66  62 CALM      29.97S

$$

ALZ051>060-300200-
INTERIOR SOUTHWEST AND SOUTH CENTRAL ALABAMA

CITY           SKY/WX    TMP DP  RH WIND       PRES   REMARKS
GREENVILLE     CLEAR     78  63  59 N5        30.00
EVERGREEN      MOCLDY    81  63  54 N3        29.99S
CASTLEBERRY*   NOT AVBL
ATMORE*          N/A     79  68  69 NW2       30.00R
DIXIE*         NOT AVBL
ANDALUSIA/OPP  CLEAR     82  65  56 CALM      29.98S
ANDALUSIA*     NOT AVBL
FLORALA APT    CLEAR     79  64  60 N5        30.00R
FLORALA*         N/A     75  64  69 CALM      29.95

$$

FLZ001>006-300200-
WESTERN FLORIDA PANHANDLE

CITY           SKY/WX    TMP DP  RH WIND       PRES   REMARKS
PENSACOLA      CLEAR     79  65  62 N6        29.97R
NAS PENSACOLA  MOCLDY    80  66  62 NW3       29.97R
MILTON         PTCLDY    77  66  68 NW3       29.98R
WHTNG S FIELD  PTCLDY    79  66  64 NW5       29.98R


CITY           SKY/WX    TMP DP  RH WIND       PRES   REMARKS
WALNUT HILL*   NOT AVBL
JAY*           NOT AVBL
DUKE FIELD     PTCLDY    80  67  66 N3        29.97R
CRESTVIEW      CLEAR     80  63  55 CALM      29.99R
VALPARAISO     PTCLDY    82  64  53 N5        29.97R
DESTIN         CLEAR     85  62  46 N8        29.96R

$$

MSZ076-079-300200-
INTERIOR SOUTHEAST MISSISSIPPI

CITY           SKY/WX    TMP DP  RH WIND       PRES   REMARKS
LEAKESVILLE*     N/A     81  64  57 NW2         N/A
AGRICOLA*      NOT AVBL

$$

MARINE OBSERVATIONS

STATION/POSITION TIME  TEMP    WIND        PRES    WAVE
                       AIR SEA DIR/SP/G            HT/PER
                 (UTC) (F)     (DEG/KT/KT) (MB)    (FT/S)
PASCAGOULA       0100   85     330/  5/  6 1015.1S
PETIT BOIS ISLND 0100   84     310/  7/  8 1015.5S
GRAND BAY        0000   86     350/  5     1016.0S
KATRINA CUT      0000   84     200/  4     1015.6F
CEDAR POINT      0000   83     220/  6     1014.6F
E DAUPHIN ISLAND 0000   83     240/  7/ 10 1015.0F
MIDDLE BAY LIGHT 0000   86      10/  6     1014.9S
USCG MOBILE BAY  0100   85 85  330/  2/  4 1014.2S
STATE DOCKS      0100   86 84              1015.0S
MEAHER PARK      0000   85      10/  2     1014.6R
WEEKS BAY        0000   86                   N/A
12 S ORANGE BCH  0100   85 85  340/ 12/ 14 1014.9R   1/ 3
PENSACOLA BAY    0100   87 87  350/  4/  8 1015.1R
64 S DAUPHIN ISL 0035   83 87  340/  8/ 10 1015.7S
67 S FORT MORGAN 0000   82                 1015.6R

$$

SELECTED LOCATIONS ACROSS THE REGION

CITY           SKY/WX    TMP DP  RH WIND       PRES   REMARKS
NEW ORLEANS    MOCLDY    83  63  50 N3        30.01S
GULFPORT       CLEAR     85  66  53 CALM      29.98S
PASCAGOULA AP  CLEAR     77  69  76 W3        29.98S
PASCAGOULA*      N/A     82  64  54 CALM      29.97S
HATTIESBURG    PTCLDY    83  65  54 N6        30.01S
LAUREL         CLEAR     81  64  57 N6        30.04R
MERIDIAN       CLEAR     76  59  55 N8        30.04R
JACKSON        CLEAR     77  59  53 N8        30.06R
MONTGOMERY     CLEAR     79  60  52 NW7       30.00R
TROY           CLEAR     78  61  55 N5        30.00R
KINSTON*       NOT AVBL
GENEVA*          N/A     77  64  65 CALM      29.99R
ASHFORD*       NOT AVBL
DOTHAN         PTCLDY    77  65  66 N5        30.01R
PANAMA CITY    PTCLDY    79  66  64 N6        29.95R

$$




USA.gov is the U.S. government's official web portal to all federal, state and local government web resources and services.